Location: *
(43.4667°N, 11.6833°E)
Time: 00:08:58
(UTC+00:00)

Cosmos 407 Rocket - Pass Details

Date: 19 July 2019
Orbit: 743 x 787 km, 74.0° (Epoch: 24 August)

Event Time Altitude Azimuth Distance (km) Brightness Sun altitude
Exits shadow 20:48:49 - 202° (SSW) 2,564 5.9 -17.0°
Reaches altitude 10° 20:49:27 10° 202° (SSW) 2,317 5.7 -17.1°
Maximum altitude 20:54:44 82° 290° (WNW) 795 3.6 -17.7°
Drops below altitude 10° 21:00:07 10° 19° (NNE) 2,353 6.5 -18.2°
Sets 21:02:31 0° 20° (NNE) 3,288 7.3 -18.5°
